Printer-friendly version

IAU Minor Planet Center

Minor Planet Center

173P/Mueller

Orbital Elements

The following orbital elements are taken from MPC 54987:
173P/Mueller
Epoch 2008 May 14.0 TT = JDT 2454600.5
T 2008 May 18.5231 TT                                   MPC
q   4.214478             (2000.0)            P               Q
n   0.0723475      Peri.   29.8349      -0.6280511      -0.7263879
a   5.704098       Node   100.5697      +0.6459050      -0.6866627
e   0.261149       Incl.   16.4958      +0.4340029      -0.0292391
P  13.6
From 88 observations 1992-2005, mean residual 0".8.
Elements are also available for the current standard epoch:
173P/Mueller
Epoch 2010 Jan. 4.0 TT = JDT 2455200.5
T 2008 May 16.9608 TT                                   MPC
q   4.212603             (2000.0)            P               Q
n   0.0724519      Peri.   29.6554      -0.6254364      -0.7286451
a   5.698618       Node   100.5442      +0.6483143      -0.6843279
e   0.260768       Incl.   16.4937      +0.4341866      -0.0277798
P  13.6
An explanation of the orbital elements is available.

These orbital elements are also available in forms suitable for loading into a number of popular planetarium-type software programs.


Ephemeris

The following ephemeris is at intervals of five days. A daily ephemeris covering the same time interval is also available.

Personalized ephemerides for this (and other) objects may be generated using the Minor Planet & Comet Ephemeris Service.

Recent magnitude estimates for this comet (as reported to the ICQ) may be available.

Date    TT    R. A. (2000) Decl.     Delta      r     Elong.  Phase   m1    m2

WARNING!

This comet gets close to the sun during the period covered in the ephemeris below. Observers are warned to be wary of observing comets near the sun. NEVER point any kind of optical instrument at the sun--instant blindness will be the probable result.

2009 10 26 13 20.16 +06 24.9 5.646 4.735 21.4 4.4 18.0 2009 10 31 13 24.89 +05 59.6 5.630 4.743 24.4 5.0 18.0 2009 11 05 13 29.58 +05 35.5 5.609 4.752 27.5 5.5 18.0 2009 11 10 13 34.21 +05 12.8 5.584 4.761 30.8 6.1 18.0 2009 11 15 13 38.77 +04 51.4 5.554 4.769 34.3 6.7 18.0 2009 11 20 13 43.25 +04 31.5 5.520 4.778 37.8 7.3 18.0 2009 11 25 13 47.64 +04 13.1 5.482 4.787 41.4 7.8 18.0 2009 11 30 13 51.93 +03 56.2 5.440 4.796 45.1 8.4 18.0 2009 12 05 13 56.10 +03 41.1 5.395 4.805 48.9 8.9 18.0 2009 12 10 14 00.13 +03 27.6 5.346 4.814 52.7 9.4 18.0 2009 12 15 14 04.03 +03 15.9 5.293 4.823 56.6 9.8 18.0 2009 12 20 14 07.76 +03 06.1 5.238 4.831 60.6 10.2 17.9 2009 12 25 14 11.32 +02 58.1 5.180 4.841 64.6 10.6 17.9 2009 12 30 14 14.69 +02 52.0 5.120 4.850 68.7 10.9 17.9 2010 01 04 14 17.85 +02 47.8 5.057 4.859 72.8 11.1 17.9 2010 01 09 14 20.80 +02 45.7 4.993 4.868 77.0 11.4 17.9 2010 01 14 14 23.50 +02 45.5 4.928 4.877 81.3 11.5 17.8 2010 01 19 14 25.95 +02 47.2 4.861 4.886 85.6 11.6 17.8 2010 01 24 14 28.13 +02 50.9 4.795 4.895 90.0 11.6 17.8 2010 01 29 14 30.02 +02 56.6 4.728 4.904 94.5 11.5 17.8 2010 02 03 14 31.61 +03 04.0 4.662 4.914 99.0 11.4 17.8 2010 02 08 14 32.90 +03 13.3 4.598 4.923 103.5 11.2 17.7 2010 02 13 14 33.86 +03 24.2 4.534 4.932 108.2 11.0 17.7 2010 02 18 14 34.49 +03 36.7 4.473 4.942 112.8 10.6 17.7 2010 02 23 14 34.79 +03 50.6 4.415 4.951 117.5 10.2 17.7 2010 02 28 14 34.74 +04 05.7 4.360 4.960 122.3 9.7 17.7 2010 03 05 14 34.37 +04 21.7 4.309 4.970 127.0 9.2 17.6 2010 03 10 14 33.66 +04 38.6 4.262 4.979 131.8 8.6 17.6 2010 03 15 14 32.64 +04 55.9 4.220 4.988 136.5 7.9 17.6 2010 03 20 14 31.31 +05 13.4 4.183 4.998 141.1 7.2 17.6 2010 03 25 14 29.70 +05 30.7 4.153 5.007 145.6 6.5 17.6 2010 03 30 14 27.85 +05 47.6 4.128 5.017 149.9 5.7 17.6 2010 04 04 14 25.77 +06 03.7 4.110 5.026 153.8 5.0 17.6 2010 04 09 14 23.52 +06 18.7 4.098 5.036 157.1 4.4 17.6 2010 04 14 14 21.12 +06 32.4 4.094 5.045 159.4 4.0 17.6 2010 04 19 14 18.63 +06 44.3 4.097 5.055 160.6 3.8 17.6 2010 04 24 14 16.09 +06 54.3 4.107 5.064 160.2 3.9 17.6 2010 04 29 14 13.54 +07 02.2 4.124 5.074 158.5 4.2 17.6 2010 05 04 14 11.04 +07 07.7 4.148 5.084 155.7 4.7 17.7 2010 05 09 14 08.62 +07 10.9 4.179 5.093 152.2 5.3 17.7 2010 05 14 14 06.33 +07 11.5 4.216 5.103 148.2 6.0 17.7 2010 05 19 14 04.20 +07 09.6 4.260 5.112 143.9 6.7 17.7 2010 05 24 14 02.27 +07 05.1 4.309 5.122 139.5 7.4 17.8 2010 05 29 14 00.57 +06 58.3 4.364 5.132 135.0 8.0 17.8 2010 06 03 13 59.11 +06 49.0 4.424 5.141 130.5 8.6 17.8 2010 06 08 13 57.91 +06 37.5 4.489 5.151 126.0 9.2 17.9 2010 06 13 13 56.99 +06 23.9 4.558 5.161 121.4 9.7 17.9 2010 06 18 13 56.35 +06 08.2 4.630 5.170 116.9 10.1 18.0 2010 06 23 13 56.01 +05 50.7 4.706 5.180 112.5 10.4 18.0 2010 06 28 13 55.95 +05 31.6 4.784 5.190 108.1 10.7 18.1 2010 07 03 13 56.18 +05 10.9 4.864 5.199 103.7 11.0 18.1 2010 07 08 13 56.69 +04 48.9 4.946 5.209 99.4 11.1 18.1 2010 07 13 13 57.48 +04 25.6 5.029 5.219 95.1 11.2 18.2 2010 07 18 13 58.54 +04 01.3 5.113 5.229 90.9 11.2 18.2 2010 07 23 13 59.85 +03 36.1 5.197 5.238 86.8 11.2 18.3 2010 07 28 14 01.41 +03 10.0 5.280 5.248 82.7 11.1 18.3 2010 08 02 14 03.21 +02 43.3 5.363 5.258 78.6 10.9 18.4 2010 08 07 14 05.23 +02 16.1 5.446 5.267 74.6 10.7 18.4 2010 08 12 14 07.46 +01 48.4 5.526 5.277 70.6 10.4 18.4 2010 08 17 14 09.90 +01 20.4 5.606 5.287 66.7 10.1 18.5 2010 08 22 14 12.52 +00 52.2 5.683 5.297 62.8 9.8 18.5 2010 08 27 14 15.32 +00 23.9 5.757 5.306 58.9 9.4 18.5 2010 09 01 14 18.29 -00 04.4 5.829 5.316 55.1 9.0 18.6 2010 09 06 14 21.41 -00 32.7 5.898 5.326 51.3 8.5 18.6 2010 09 11 14 24.68 -01 00.9 5.964 5.336 47.5 8.0 18.6 2010 09 16 14 28.08 -01 28.8 6.026 5.345 43.7 7.5 18.7 2010 09 21 14 31.60 -01 56.4 6.085 5.355 40.0 6.9 18.7 2010 09 26 14 35.24 -02 23.7 6.139 5.365 36.4 6.4 18.7 2010 10 01 14 38.97 -02 50.5 6.189 5.374 32.8 5.8 18.8 2010 10 06 14 42.80 -03 16.9 6.235 5.384 29.2 5.2 18.8 2010 10 11 14 46.71 -03 42.6 6.276 5.394 25.7 4.6 18.8 2010 10 16 14 50.69 -04 07.8 6.313 5.404 22.3 4.0 18.8 2010 10 21 14 54.72 -04 32.2 6.344 5.413 19.1 3.4 18.8 2010 10 26 14 58.81 -04 55.9 6.371 5.423 16.2 2.9 18.9 2010 10 31 15 02.94 -05 18.8 6.392 5.433 13.7 2.5 18.9 2010 11 05 15 07.10 -05 40.9 6.409 5.442 12.0 2.2 18.9 2010 11 10 15 11.28 -06 02.1 6.420 5.452 11.3 2.0 18.9 2010 11 15 15 15.46 -06 22.3 6.425 5.462 12.0 2.2 18.9 2010 11 20 15 19.64 -06 41.6 6.426 5.472 13.8 2.5 18.9 2010 11 25 15 23.81 -06 59.8 6.421 5.481 16.4 2.9 18.9 2010 11 30 15 27.95 -07 17.0 6.411 5.491 19.5 3.4 18.9

Valid HTML 4.01!